Wetterdaten: Sonntag, 24.06.2012
Datum Zeit Temp. A. Temp. A. min Temp. A. max Feuchte A. Luftdruck Regen Wind Richtung Richtung Sonnenschein ET Solar Taupunkt Windchill Windben Empfang
24.06.2012 00:00 11,8 C 0,0 C 0,0 C 79 % 1021,5 hPa 0,0 l/m 0,0 km/h (0 Bft) O-NO 65 0 min 0,000 mm 0 W/m 8,3 C 11,8 C 0,0 km/h (0 Bft) 0,00 %
24.06.2012 00:05 11,7 C 0,0 C 0,0 C 79 % 1021,5 hPa 0,0 l/m 0,0 km/h (0 Bft) N-NW 335 0 min 0,000 mm 0 W/m 8,2 C 11,7 C 0,0 km/h (0 Bft) 0,00 %
24.06.2012 00:10 11,6 C 0,0 C 0,0 C 79 % 1021,5 hPa 0,0 l/m 0,0 km/h (0 Bft) O 100 0 min 0,000 mm 0 W/m 8,1 C 11,6 C 0,0 km/h (0 Bft) 0,00 %
24.06.2012 00:15 12,0 C 0,0 C 0,0 C 78 % 1021,5 hPa 0,0 l/m 0,0 km/h (0 Bft) SO 125 0 min 0,000 mm 0 W/m 8,3 C 12,0 C 0,0 km/h (0 Bft) 0,00 %
24.06.2012 00:20 12,2 C 0,0 C 0,0 C 78 % 1021,5 hPa 0,0 l/m 0,0 km/h (0 Bft) O 95 0 min 0,000 mm 0 W/m 8,5 C 12,2 C 0,0 km/h (0 Bft) 0,00 %
24.06.2012 00:25 11,8 C 0,0 C 0,0 C 78 % 1021,5 hPa 0,0 l/m 0,0 km/h (0 Bft) O 90 0 min 0,000 mm 0 W/m 8,1 C 11,8 C 0,0 km/h (0 Bft) 0,00 %
24.06.2012 00:30 11,7 C 0,0 C 0,0 C 78 % 1021,5 hPa 0,0 l/m 0,0 km/h (0 Bft) N 0 0 min 0,000 mm 0 W/m 8,0 C 11,7 C 0,0 km/h (0 Bft) 0,00 %
24.06.2012 00:35 11,2 C 0,0 C 0,0 C 80 % 1021,5 hPa 0,0 l/m 0,0 km/h (0 Bft) W 270 0 min 0,000 mm 0 W/m 7,9 C 11,2 C 0,0 km/h (0 Bft) 0,00 %
24.06.2012 00:40 11,1 C 0,0 C 0,0 C 81 % 1021,5 hPa 0,0 l/m 0,0 km/h (0 Bft) S 180 0 min 0,000 mm 0 W/m 8,0 C 11,1 C 0,0 km/h (0 Bft) 0,00 %
24.06.2012 00:45 10,8 C 0,0 C 0,0 C 81 % 1021,5 hPa 0,0 l/m 0,0 km/h (0 Bft) S-SO 160 0 min 0,000 mm 0 W/m 7,7 C 10,8 C 0,0 km/h (0 Bft) 0,00 %
24.06.2012 00:50 10,6 C 0,0 C 0,0 C 82 % 1021,5 hPa 0,0 l/m 0,0 km/h (0 Bft) NW 325 0 min 0,000 mm 0 W/m 7,7 C 10,6 C 0,0 km/h (0 Bft) 0,00 %
24.06.2012 00:55 10,4 C 0,0 C 0,0 C 82 % 1021,5 hPa 0,0 l/m 0,0 km/h (0 Bft) N-NW 335 0 min 0,000 mm 0 W/m 7,5 C 10,4 C 0,0 km/h (0 Bft) 0,00 %
24.06.2012 01:00 10,3 C 0,0 C 0,0 C 82 % 1021,5 hPa 0,0 l/m 0,0 km/h (0 Bft) N-NO 20 0 min 0,000 mm 0 W/m 7,4 C 10,3 C 0,0 km/h (0 Bft) 0,00 %
24.06.2012 01:05 10,3 C 0,0 C 0,0 C 83 % 1020,5 hPa 0,0 l/m 0,0 km/h (0 Bft) N-NW 335 0 min 0,000 mm 0 W/m 7,5 C 10,3 C 0,0 km/h (0 Bft) 0,00 %
24.06.2012 01:10 10,1 C 0,0 C 0,0 C 83 % 1020,5 hPa 0,0 l/m 0,0 km/h (0 Bft) N-NW 330 0 min 0,000 mm 0 W/m 7,3 C 10,1 C 0,0 km/h (0 Bft) 0,00 %
24.06.2012 01:15 10,1 C 0,0 C 0,0 C 84 % 1020,5 hPa 0,0 l/m 0,0 km/h (0 Bft) N 0 0 min 0,000 mm 0 W/m 7,5 C 10,1 C 0,0 km/h (0 Bft) 0,00 %
24.06.2012 01:20 10,0 C 0,0 C 0,0 C 84 % 1021,5 hPa 0,0 l/m 0,0 km/h (0 Bft) N-NW 335 0 min 0,000 mm 0 W/m 7,4 C 10,0 C 0,0 km/h (0 Bft) 0,00 %
24.06.2012 01:25 10,0 C 0,0 C 0,0 C 84 % 1021,5 hPa 0,0 l/m 0,0 km/h (0 Bft) N-NW 330 0 min 0,000 mm 0 W/m 7,4 C 10,0 C 0,0 km/h (0 Bft) 0,00 %
24.06.2012 01:30 9,9 C 0,0 C 0,0 C 84 % 1021,5 hPa 0,0 l/m 0,0 km/h (0 Bft) N-NW 340 0 min 0,000 mm 0 W/m 7,3 C 9,9 C 0,0 km/h (0 Bft) 0,00 %
24.06.2012 01:35 9,7 C 0,0 C 0,0 C 84 % 1021,5 hPa 0,0 l/m 0,0 km/h (0 Bft) NW 325 0 min 0,000 mm 0 W/m 7,1 C 9,7 C 0,0 km/h (0 Bft) 0,00 %
24.06.2012 01:40 9,7 C 0,0 C 0,0 C 84 % 1021,5 hPa 0,0 l/m 0,0 km/h (0 Bft) N-NO 25 0 min 0,000 mm 0 W/m 7,1 C 9,7 C 0,0 km/h (0 Bft) 0,00 %
24.06.2012 01:45 9,7 C 0,0 C 0,0 C 85 % 1021,5 hPa 0,0 l/m 0,0 km/h (0 Bft) N-NW 335 0 min 0,000 mm 0 W/m 7,3 C 9,7 C 0,0 km/h (0 Bft) 0,00 %
24.06.2012 01:50 9,8 C 0,0 C 0,0 C 85 % 1020,5 hPa 0,0 l/m 0,0 km/h (0 Bft) N-NW 345 0 min 0,000 mm 0 W/m 7,4 C 9,8 C 0,0 km/h (0 Bft) 0,00 %
24.06.2012 01:55 9,8 C 0,0 C 0,0 C 85 % 1020,5 hPa 0,0 l/m 0,0 km/h (0 Bft) NO 40 0 min 0,000 mm 0 W/m 7,4 C 9,8 C 0,0 km/h (0 Bft) 0,00 %
24.06.2012 02:00 9,9 C 0,0 C 0,0 C 85 % 1020,5 hPa 0,0 l/m 0,0 km/h (0 Bft) O-SO 105 0 min 0,000 mm 0 W/m 7,5 C 9,9 C 0,0 km/h (0 Bft) 0,00 %
24.06.2012 02:05 9,8 C 0,0 C 0,0 C 85 % 1020,5 hPa 0,0 l/m 0,0 km/h (0 Bft) O-NO 70 0 min 0,000 mm 0 W/m 7,4 C 9,8 C 0,0 km/h (0 Bft) 0,00 %
24.06.2012 02:10 9,6 C 0,0 C 0,0 C 85 % 1020,5 hPa 0,0 l/m 0,0 km/h (0 Bft) O-NO 70 0 min 0,000 mm 0 W/m 7,2 C 9,6 C 0,0 km/h (0 Bft) 0,00 %
24.06.2012 02:15 9,6 C 0,0 C 0,0 C 85 % 1020,5 hPa 0,0 l/m 0,0 km/h (0 Bft) W-NW 295 0 min 0,000 mm 0 W/m 7,2 C 9,6 C 0,0 km/h (0 Bft) 0,00 %
24.06.2012 02:20 9,5 C 0,0 C 0,0 C 85 % 1020,5 hPa 0,0 l/m 0,0 km/h (0 Bft) W-NW 285 0 min 0,000 mm 0 W/m 7,1 C 9,5 C 0,0 km/h (0 Bft) 0,00 %
24.06.2012 02:25 9,3 C 0,0 C 0,0 C 86 % 1020,5 hPa 0,0 l/m 0,0 km/h (0 Bft) N 355 0 min 0,000 mm 0 W/m 7,1 C 9,3 C 0,0 km/h (0 Bft) 0,00 %
24.06.2012 02:30 9,2 C 0,0 C 0,0 C 86 % 1020,5 hPa 0,0 l/m 0,0 km/h (0 Bft) N 355 0 min 0,000 mm 0 W/m 7,0 C 9,2 C 0,0 km/h (0 Bft) 0,00 %
24.06.2012 02:35 9,2 C 0,0 C 0,0 C 86 % 1020,5 hPa 0,0 l/m 0,0 km/h (0 Bft) N 355 0 min 0,000 mm 0 W/m 7,0 C 9,2 C 0,0 km/h (0 Bft) 0,00 %
24.06.2012 02:40 9,1 C 0,0 C 0,0 C 86 % 1020,5 hPa 0,0 l/m 0,0 km/h (0 Bft) N 355 0 min 0,000 mm 0 W/m 6,9 C 9,1 C 0,0 km/h (0 Bft) 0,00 %
24.06.2012 02:45 9,1 C 0,0 C 0,0 C 86 % 1020,5 hPa 0,0 l/m 0,0 km/h (0 Bft) O 80 0 min 0,000 mm 0 W/m 6,9 C 9,1 C 0,0 km/h (0 Bft) 0,00 %
24.06.2012 02:50 9,5 C 0,0 C 0,0 C 86 % 1020,5 hPa 0,0 l/m 0,0 km/h (0 Bft) O-NO 75 0 min 0,000 mm 0 W/m 7,3 C 9,5 C 0,0 km/h (0 Bft) 0,00 %
24.06.2012 02:55 9,3 C 0,0 C 0,0 C 86 % 1020,5 hPa 0,0 l/m 0,0 km/h (0 Bft) N-NO 15 0 min 0,000 mm 0 W/m 7,1 C 9,3 C 0,0 km/h (0 Bft) 0,00 %
24.06.2012 03:00 9,1 C 0,0 C 0,0 C 86 % 1020,5 hPa 0,0 l/m 0,0 km/h (0 Bft) N-NO 15 0 min 0,000 mm 0 W/m 6,9 C 9,1 C 0,0 km/h (0 Bft) 0,00 %
24.06.2012 03:05 9,1 C 0,0 C 0,0 C 87 % 1020,5 hPa 0,0 l/m 0,0 km/h (0 Bft) O-SO 120 0 min 0,000 mm 0 W/m 7,1 C 9,1 C 0,0 km/h (0 Bft) 0,00 %
24.06.2012 03:10 9,1 C 0,0 C 0,0 C 87 % 1020,5 hPa 0,0 l/m 0,0 km/h (0 Bft) O 85 0 min 0,000 mm 0 W/m 7,1 C 9,1 C 0,0 km/h (0 Bft) 0,00 %
24.06.2012 03:15 9,1 C 0,0 C 0,0 C 87 % 1020,5 hPa 0,0 l/m 0,0 km/h (0 Bft) O-NO 65 0 min 0,000 mm 0 W/m 7,1 C 9,1 C 0,0 km/h (0 Bft) 0,00 %
24.06.2012 03:20 8,9 C 0,0 C 0,0 C 87 % 1020,5 hPa 0,0 l/m 0,0 km/h (0 Bft) O-NO 60 0 min 0,000 mm 0 W/m 6,9 C 8,9 C 0,0 km/h (0 Bft) 0,00 %
24.06.2012 03:25 8,8 C 0,0 C 0,0 C 87 % 1020,5 hPa 0,0 l/m 0,0 km/h (0 Bft) O-NO 65 0 min 0,000 mm 0 W/m 6,8 C 8,8 C 0,0 km/h (0 Bft) 0,00 %
24.06.2012 03:30 8,7 C 0,0 C 0,0 C 87 % 1020,5 hPa 0,0 l/m 0,0 km/h (0 Bft) O-NO 65 0 min 0,000 mm 0 W/m 6,7 C 8,7 C 0,0 km/h (0 Bft) 0,00 %
24.06.2012 03:35 8,6 C 0,0 C 0,0 C 87 % 1020,5 hPa 0,0 l/m 0,0 km/h (0 Bft) O-NO 65 0 min 0,000 mm 0 W/m 6,6 C 8,6 C 0,0 km/h (0 Bft) 0,00 %
24.06.2012 03:40 8,6 C 0,0 C 0,0 C 87 % 1020,5 hPa 0,0 l/m 0,0 km/h (0 Bft) O-NO 65 0 min 0,000 mm 0 W/m 6,6 C 8,6 C 0,0 km/h (0 Bft) 0,00 %
24.06.2012 03:45 8,9 C 0,0 C 0,0 C 87 % 1020,5 hPa 0,0 l/m 0,0 km/h (0 Bft) N-NW 340 0 min 0,000 mm 0 W/m 6,9 C 8,9 C 0,0 km/h (0 Bft) 0,00 %
24.06.2012 03:50 8,7 C 0,0 C 0,0 C 87 % 1020,5 hPa 0,0 l/m 0,0 km/h (0 Bft) N-NW 340 0 min 0,000 mm 0 W/m 6,7 C 8,7 C 0,0 km/h (0 Bft) 0,00 %
24.06.2012 03:55 8,7 C 0,0 C 0,0 C 87 % 1020,5 hPa 0,0 l/m 0,0 km/h (0 Bft) N-NW 340 0 min 0,000 mm 0 W/m 6,7 C 8,7 C 0,0 km/h (0 Bft) 0,00 %
24.06.2012 04:00 8,7 C 0,0 C 0,0 C 87 % 1020,5 hPa 0,0 l/m 0,0 km/h (0 Bft) SO 125 0 min 0,000 mm 0 W/m 6,7 C 8,7 C 0,0 km/h (0 Bft) 0,00 %
24.06.2012 04:05 8,7 C 0,0 C 0,0 C 87 % 1019,5 hPa 0,0 l/m 0,0 km/h (0 Bft) N 5 0 min 0,000 mm 0 W/m 6,7 C 8,7 C 0,0 km/h (0 Bft) 0,00 %
24.06.2012 04:10 8,7 C 0,0 C 0,0 C 87 % 1019,5 hPa 0,0 l/m 0,0 km/h (0 Bft) NW 320 0 min 0,000 mm 0 W/m 6,7 C 8,7 C 0,0 km/h (0 Bft) 0,00 %
24.06.2012 04:15 8,6 C 0,0 C 0,0 C 87 % 1019,5 hPa 0,0 l/m 0,0 km/h (0 Bft) NW 320 0 min 0,000 mm 0 W/m 6,6 C 8,6 C 0,0 km/h (0 Bft) 0,00 %
24.06.2012 04:20 8,5 C 0,0 C 0,0 C 87 % 1019,5 hPa 0,0 l/m 0,0 km/h (0 Bft) NW 320 0 min 0,000 mm 0 W/m 6,5 C 8,5 C 0,0 km/h (0 Bft) 0,00 %
24.06.2012 04:25 8,4 C 0,0 C 0,0 C 87 % 1019,5 hPa 0,0 l/m 0,0 km/h (0 Bft) NW 320 0 min 0,000 mm 0 W/m 6,4 C 8,4 C 0,0 km/h (0 Bft) 0,00 %
24.06.2012 04:30 8,6 C 0,0 C 0,0 C 87 % 1019,5 hPa 0,0 l/m 0,0 km/h (0 Bft) N 0 0 min 0,000 mm 0 W/m 6,6 C 8,6 C 0,0 km/h (0 Bft) 0,00 %
24.06.2012 04:35 8,6 C 0,0 C 0,0 C 87 % 1019,5 hPa 0,0 l/m 0,0 km/h (0 Bft) N-NW 335 0 min 0,000 mm 0 W/m 6,6 C 8,6 C 0,0 km/h (0 Bft) 0,00 %
24.06.2012 04:40 8,6 C 0,0 C 0,0 C 87 % 1019,5 hPa 0,0 l/m 0,0 km/h (0 Bft) NW 315 0 min 0,000 mm 0 W/m 6,6 C 8,6 C 0,0 km/h (0 Bft) 0,00 %
24.06.2012 04:45 8,5 C 0,0 C 0,0 C 88 % 1019,5 hPa 0,0 l/m 0,0 km/h (0 Bft) N-NW 330 0 min 0,000 mm 0 W/m 6,6 C 8,5 C 0,0 km/h (0 Bft) 0,00 %
24.06.2012 04:50 8,5 C 0,0 C 0,0 C 88 % 1019,5 hPa 0,0 l/m 0,0 km/h (0 Bft) N-NW 330 0 min 0,000 mm 0 W/m 6,6 C 8,5 C 0,0 km/h (0 Bft) 0,00 %
24.06.2012 04:55 8,5 C 0,0 C 0,0 C 88 % 1019,5 hPa 0,0 l/m 0,0 km/h (0 Bft) N-NW 330 0 min 0,000 mm 0 W/m 6,6 C 8,5 C 0,0 km/h (0 Bft) 0,00 %
24.06.2012 05:00 8,5 C 0,0 C 0,0 C 88 % 1019,5 hPa 0,0 l/m 0,0 km/h (0 Bft) N-NW 330 0 min 0,000 mm 0 W/m 6,6 C 8,5 C 0,0 km/h (0 Bft) 0,00 %
24.06.2012 05:05 8,6 C 0,0 C 0,0 C 88 % 1019,5 hPa 0,0 l/m 0,0 km/h (0 Bft) N-NW 330 0 min 0,000 mm 0 W/m 6,7 C 8,6 C 0,0 km/h (0 Bft) 0,00 %
24.06.2012 05:10 8,6 C 0,0 C 0,0 C 88 % 1019,5 hPa 0,0 l/m 0,0 km/h (0 Bft) N-NW 330 0 min 0,000 mm 0 W/m 6,7 C 8,6 C 0,0 km/h (0 Bft) 0,00 %
24.06.2012 05:15 8,6 C 0,0 C 0,0 C 88 % 1019,5 hPa 0,0 l/m 0,0 km/h (0 Bft) N-NW 330 0 min 0,000 mm 0 W/m 6,7 C 8,6 C 0,0 km/h (0 Bft) 0,00 %
24.06.2012 05:20 8,8 C 0,0 C 0,0 C 88 % 1019,5 hPa 0,0 l/m 0,0 km/h (0 Bft) NW 320 0 min 0,000 mm 0 W/m 6,9 C 8,8 C 0,0 km/h (0 Bft) 0,00 %
24.06.2012 05:25 9,0 C 0,0 C 0,0 C 88 % 1019,5 hPa 0,0 l/m 0,0 km/h (0 Bft) W-SW 245 0 min 0,000 mm 0 W/m 7,1 C 9,0 C 0,0 km/h (0 Bft) 0,00 %
24.06.2012 05:30 8,9 C 0,0 C 0,0 C 88 % 1019,5 hPa 0,0 l/m 0,0 km/h (0 Bft) S-SW 195 0 min 0,000 mm 0 W/m 7,0 C 8,9 C 0,0 km/h (0 Bft) 0,00 %
24.06.2012 05:35 8,9 C 0,0 C 0,0 C 88 % 1019,5 hPa 0,0 l/m 0,0 km/h (0 Bft) S-SW 195 0 min 0,000 mm 0 W/m 7,0 C 8,9 C 0,0 km/h (0 Bft) 0,00 %
24.06.2012 05:40 8,9 C 0,0 C 0,0 C 88 % 1019,5 hPa 0,0 l/m 0,0 km/h (0 Bft) O 80 0 min 0,000 mm 0 W/m 7,0 C 8,9 C 0,0 km/h (0 Bft) 0,00 %
24.06.2012 05:45 9,1 C 0,0 C 0,0 C 88 % 1019,5 hPa 0,0 l/m 0,0 km/h (0 Bft) O-SO 110 0 min 0,000 mm 0 W/m 7,2 C 9,1 C 0,0 km/h (0 Bft) 0,00 %
24.06.2012 05:50 9,1 C 0,0 C 0,0 C 88 % 1019,5 hPa 0,0 l/m 0,0 km/h (0 Bft) O 100 0 min 0,000 mm 0 W/m 7,2 C 9,1 C 0,0 km/h (0 Bft) 0,00 %
24.06.2012 05:55 9,2 C 0,0 C 0,0 C 88 % 1019,5 hPa 0,0 l/m 0,0 km/h (0 Bft) W 275 0 min 0,000 mm 0 W/m 7,3 C 9,2 C 0,0 km/h (0 Bft) 0,00 %
24.06.2012 06:00 9,0 C 0,0 C 0,0 C 88 % 1019,5 hPa 0,0 l/m 0,0 km/h (0 Bft) W-SW 245 0 min 0,000 mm 0 W/m 7,1 C 9,0 C 0,0 km/h (0 Bft) 0,00 %
24.06.2012 06:05 9,1 C 0,0 C 0,0 C 88 % 1019,5 hPa 0,0 l/m 0,0 km/h (0 Bft) W-SW 250 0 min 0,000 mm 0 W/m 7,2 C 9,1 C 0,0 km/h (0 Bft) 0,00 %
24.06.2012 06:10 9,1 C 0,0 C 0,0 C 88 % 1019,5 hPa 0,0 l/m 0,0 km/h (0 Bft) W-SW 240 0 min 0,000 mm 0 W/m 7,2 C 9,1 C 0,0 km/h (0 Bft) 0,00 %
24.06.2012 06:15 9,1 C 0,0 C 0,0 C 88 % 1019,5 hPa 0,0 l/m 0,0 km/h (0 Bft) W-SW 240 0 min 0,000 mm 0 W/m 7,2 C 9,1 C 0,0 km/h (0 Bft) 0,00 %
24.06.2012 06:20 9,3 C 0,0 C 0,0 C 88 % 1018,5 hPa 0,0 l/m 0,0 km/h (0 Bft) SW 230 0 min 0,000 mm 0 W/m 7,4 C 9,3 C 0,0 km/h (0 Bft) 0,00 %
24.06.2012 06:25 9,6 C 0,0 C 0,0 C 88 % 1018,5 hPa 0,0 l/m 0,0 km/h (0 Bft) SO 135 0 min 0,000 mm 0 W/m 7,7 C 9,6 C 0,0 km/h (0 Bft) 0,00 %
24.06.2012 06:30 9,7 C 0,0 C 0,0 C 88 % 1018,5 hPa 0,0 l/m 0,0 km/h (0 Bft) S 180 0 min 0,000 mm 0 W/m 7,8 C 9,7 C 0,0 km/h (0 Bft) 0,00 %
24.06.2012 06:35 9,6 C 0,0 C 0,0 C 88 % 1018,5 hPa 0,0 l/m 0,0 km/h (0 Bft) W 260 0 min 0,000 mm 0 W/m 7,7 C 9,6 C 0,0 km/h (0 Bft) 0,00 %
24.06.2012 06:40 9,5 C 0,0 C 0,0 C 88 % 1018,5 hPa 0,0 l/m 0,0 km/h (0 Bft) W-SW 255 0 min 0,000 mm 0 W/m 7,6 C 9,5 C 0,0 km/h (0 Bft) 0,00 %
24.06.2012 06:45 9,5 C 0,0 C 0,0 C 88 % 1018,5 hPa 0,0 l/m 0,0 km/h (0 Bft) W 265 0 min 0,000 mm 0 W/m 7,6 C 9,5 C 0,0 km/h (0 Bft) 0,00 %
24.06.2012 06:50 9,6 C 0,0 C 0,0 C 88 % 1018,5 hPa 0,0 l/m 0,0 km/h (0 Bft) W-SW 255 0 min 0,000 mm 0 W/m 7,7 C 9,6 C 0,0 km/h (0 Bft) 0,00 %
24.06.2012 06:55 9,6 C 0,0 C 0,0 C 87 % 1018,5 hPa 0,0 l/m 0,0 km/h (0 Bft) S-SO 150 0 min 0,000 mm 0 W/m 7,5 C 9,6 C 0,0 km/h (0 Bft) 0,00 %
24.06.2012 07:00 9,8 C 0,0 C 0,0 C 87 % 1018,5 hPa 0,0 l/m 0,0 km/h (0 Bft) S 185 0 min 0,000 mm 0 W/m 7,7 C 9,8 C 0,0 km/h (0 Bft) 0,00 %
24.06.2012 07:05 9,8 C 0,0 C 0,0 C 87 % 1018,5 hPa 0,0 l/m 0,0 km/h (0 Bft) S-SW 205 0 min 0,000 mm 0 W/m 7,7 C 9,8 C 0,0 km/h (0 Bft) 0,00 %
24.06.2012 07:10 9,9 C 0,0 C 0,0 C 87 % 1018,5 hPa 0,0 l/m 0,0 km/h (0 Bft) W-SW 245 0 min 0,000 mm 0 W/m 7,8 C 9,9 C 0,0 km/h (0 Bft) 0,00 %
24.06.2012 07:15 10,1 C 0,0 C 0,0 C 87 % 1018,5 hPa 0,0 l/m 0,0 km/h (0 Bft) W-NW 290 0 min 0,000 mm 0 W/m 8,0 C 10,1 C 0,0 km/h (0 Bft) 0,00 %
24.06.2012 07:20 10,4 C 0,0 C 0,0 C 87 % 1018,5 hPa 0,0 l/m 0,0 km/h (0 Bft) W-NW 295 0 min 0,000 mm 0 W/m 8,3 C 10,4 C 0,0 km/h (0 Bft) 0,00 %
24.06.2012 07:25 10,7 C 0,0 C 0,0 C 87 % 1018,5 hPa 0,0 l/m 0,0 km/h (0 Bft) SW 235 0 min 0,000 mm 0 W/m 8,6 C 10,7 C 0,0 km/h (0 Bft) 0,00 %
24.06.2012 07:30 11,0 C 0,0 C 0,0 C 86 % 1018,5 hPa 0,0 l/m 0,0 km/h (0 Bft) SW 235 0 min 0,000 mm 0 W/m 8,7 C 11,0 C 0,0 km/h (0 Bft) 0,00 %
24.06.2012 07:35 11,3 C 0,0 C 0,0 C 86 % 1018,5 hPa 0,0 l/m 0,0 km/h (0 Bft) W 280 0 min 0,000 mm 0 W/m 9,0 C 11,3 C 0,0 km/h (0 Bft) 0,00 %
24.06.2012 07:40 11,6 C 0,0 C 0,0 C 85 % 1018,5 hPa 0,0 l/m 0,0 km/h (0 Bft) W 265 0 min 0,000 mm 0 W/m 9,2 C 11,6 C 0,0 km/h (0 Bft) 0,00 %
24.06.2012 07:45 12,0 C 0,0 C 0,0 C 84 % 1018,5 hPa 0,0 l/m 0,0 km/h (0 Bft) SW 215 0 min 0,000 mm 0 W/m 9,4 C 12,0 C 0,0 km/h (0 Bft) 0,00 %
24.06.2012 07:50 12,0 C 0,0 C 0,0 C 84 % 1017,5 hPa 0,0 l/m 0,0 km/h (0 Bft) S-SO 155 0 min 0,000 mm 0 W/m 9,4 C 12,0 C 0,0 km/h (0 Bft) 0,00 %
24.06.2012 07:55 12,1 C 0,0 C 0,0 C 84 % 1017,5 hPa 0,0 l/m 0,0 km/h (0 Bft) O-SO 105 0 min 0,000 mm 0 W/m 9,5 C 12,1 C 0,0 km/h (0 Bft) 0,00 %
24.06.2012 08:00 12,2 C 0,0 C 0,0 C 83 % 1017,5 hPa 0,0 l/m 0,0 km/h (0 Bft) O-NO 75 0 min 0,000 mm 0 W/m 9,4 C 12,2 C 0,0 km/h (0 Bft) 0,00 %
24.06.2012 08:05 12,6 C 0,0 C 0,0 C 83 % 1017,5 hPa 0,0 l/m 0,0 km/h (0 Bft) N-NO 30 0 min 0,000 mm 0 W/m 9,8 C 12,6 C 0,0 km/h (0 Bft) 0,00 %
24.06.2012 08:10 13,3 C 0,0 C 0,0 C 80 % 1017,5 hPa 0,0 l/m 0,0 km/h (0 Bft) W-SW 245 0 min 0,000 mm 0 W/m 9,9 C 13,3 C 0,0 km/h (0 Bft) 0,00 %
24.06.2012 08:15 13,8 C 0,0 C 0,0 C 79 % 1017,5 hPa 0,0 l/m 0,0 km/h (0 Bft) O-SO 110 0 min 0,000 mm 0 W/m 10,2 C 13,8 C 0,0 km/h (0 Bft) 0,00 %
24.06.2012 08:20 14,4 C 0,0 C 0,0 C 77 % 1017,5 hPa 0,0 l/m 0,0 km/h (0 Bft) NW 310 0 min 0,000 mm 0 W/m 10,4 C 14,4 C 0,0 km/h (0 Bft) 0,00 %
24.06.2012 08:25 13,9 C 0,0 C 0,0 C 77 % 1017,5 hPa 0,0 l/m 0,0 km/h (0 Bft) W-NW 290 0 min 0,000 mm 0 W/m 9,9 C 13,9 C 0,0 km/h (0 Bft) 0,00 %
24.06.2012 08:30 14,2 C 0,0 C 0,0 C 77 % 1017,5 hPa 0,0 l/m 0,0 km/h (0 Bft) W 265 0 min 0,000 mm 0 W/m 10,2 C 14,2 C 0,0 km/h (0 Bft) 0,00 %
24.06.2012 08:35 14,8 C 0,0 C 0,0 C 76 % 1017,5 hPa 0,0 l/m 0,0 km/h (0 Bft) SW 230 0 min 0,000 mm 0 W/m 10,6 C 14,8 C 0,0 km/h (0 Bft) 0,00 %
24.06.2012 08:40 14,7 C 0,0 C 0,0 C 76 % 1017,5 hPa 0,0 l/m 0,0 km/h (0 Bft) SO 135 0 min 0,000 mm 0 W/m 10,5 C 14,7 C 0,0 km/h (0 Bft) 0,00 %
24.06.2012 08:45 14,7 C 0,0 C 0,0 C 76 % 1017,5 hPa 0,0 l/m 0,0 km/h (0 Bft) S 170 0 min 0,000 mm 0 W/m 10,5 C 14,7 C 0,0 km/h (0 Bft) 0,00 %
24.06.2012 08:50 14,8 C 0,0 C 0,0 C 77 % 1017,5 hPa 0,0 l/m 0,0 km/h (0 Bft) SO 135 0 min 0,000 mm 0 W/m 10,8 C 14,8 C 0,0 km/h (0 Bft) 0,00 %
24.06.2012 08:55 14,8 C 0,0 C 0,0 C 76 % 1017,5 hPa 0,0 l/m 0,0 km/h (0 Bft) S-SO 160 0 min 0,000 mm 0 W/m 10,6 C 14,8 C 0,0 km/h (0 Bft) 0,00 %
24.06.2012 09:00 15,0 C 0,0 C 0,0 C 76 % 1017,5 hPa 0,0 l/m 0,0 km/h (0 Bft) W-SW 240 0 min 0,000 mm 0 W/m 10,8 C 15,0 C 0,0 km/h (0 Bft) 0,00 %
24.06.2012 09:05 15,4 C 0,0 C 0,0 C 74 % 1017,5 hPa 0,0 l/m 0,0 km/h (0 Bft) SW 235 0 min 0,000 mm 0 W/m 10,8 C 15,4 C 0,0 km/h (0 Bft) 0,00 %
24.06.2012 09:10 15,5 C 0,0 C 0,0 C 75 % 1017,5 hPa 0,0 l/m 0,3 km/h (0 Bft) W 275 0 min 0,000 mm 0 W/m 11,1 C 15,5 C 0,3 km/h (0 Bft) 0,00 %
24.06.2012 09:15 15,8 C 0,0 C 0,0 C 74 % 1017,5 hPa 0,0 l/m 2,4 km/h (1 Bft) W-SW 255 0 min 0,000 mm 0 W/m 11,2 C 15,8 C 2,4 km/h (1 Bft) 0,00 %
24.06.2012 09:20 16,2 C 0,0 C 0,0 C 72 % 1017,5 hPa 0,0 l/m 5,4 km/h (1 Bft) S 180 0 min 0,000 mm 0 W/m 11,1 C 16,2 C 5,4 km/h (1 Bft) 0,00 %
24.06.2012 09:25 16,2 C 0,0 C 0,0 C 72 % 1017,5 hPa 0,0 l/m 7,9 km/h (2 Bft) W 260 0 min 0,000 mm 0 W/m 11,1 C 16,2 C 7,9 km/h (2 Bft) 0,00 %
24.06.2012 09:30 15,9 C 0,0 C 0,0 C 70 % 1017,5 hPa 0,0 l/m 9,7 km/h (2 Bft) S-SW 195 0 min 0,000 mm 0 W/m 10,4 C 15,9 C 9,7 km/h (2 Bft) 0,00 %
24.06.2012 09:35 16,2 C 0,0 C 0,0 C 71 % 1016,5 hPa 0,0 l/m 3,6 km/h (1 Bft) SW 225 0 min 0,000 mm 0 W/m 10,9 C 16,2 C 3,6 km/h (1 Bft) 0,00 %
24.06.2012 09:40 16,2 C 0,0 C 0,0 C 70 % 1016,5 hPa 0,0 l/m 7,6 km/h (2 Bft) S-SW 205 0 min 0,000 mm 0 W/m 10,7 C 16,2 C 7,6 km/h (2 Bft) 0,00 %
24.06.2012 09:45 16,2 C 0,0 C 0,0 C 70 % 1016,5 hPa 0,0 l/m 7,0 km/h (2 Bft) SW 225 0 min 0,000 mm 0 W/m 10,7 C 16,2 C 7,0 km/h (2 Bft) 0,00 %
24.06.2012 09:50 16,1 C 0,0 C 0,0 C 70 % 1017,5 hPa 0,0 l/m 7,3 km/h (2 Bft) S 180 0 min 0,000 mm 0 W/m 10,6 C 16,1 C 7,3 km/h (2 Bft) 0,00 %
24.06.2012 09:55 16,2 C 0,0 C 0,0 C 70 % 1017,5 hPa 0,0 l/m 4,8 km/h (1 Bft) W 265 0 min 0,000 mm 0 W/m 10,7 C 16,2 C 4,8 km/h (1 Bft) 0,00 %
24.06.2012 10:00 16,0 C 0,0 C 0,0 C 69 % 1017,5 hPa 0,0 l/m 10,3 km/h (2 Bft) SW 220 0 min 0,000 mm 0 W/m 10,3 C 16,0 C 10,3 km/h (2 Bft) 0,00 %
24.06.2012 10:05 16,4 C 0,0 C 0,0 C 69 % 1016,5 hPa 0,0 l/m 10,3 km/h (2 Bft) W 260 0 min 0,000 mm 0 W/m 10,7 C 16,4 C 10,3 km/h (2 Bft) 0,00 %
24.06.2012 10:10 16,6 C 0,0 C 0,0 C 69 % 1016,5 hPa 0,0 l/m 10,3 km/h (2 Bft) W 265 0 min 0,000 mm 0 W/m 10,9 C 16,6 C 10,3 km/h (2 Bft) 0,00 %
24.06.2012 10:15 16,7 C 0,0 C 0,0 C 69 % 1016,5 hPa 0,0 l/m 10,0 km/h (2 Bft) N-NO 25 0 min 0,000 mm 0 W/m 11,0 C 16,7 C 10,0 km/h (2 Bft) 0,00 %
24.06.2012 10:20 16,8 C 0,0 C 0,0 C 68 % 1016,5 hPa 0,0 l/m 8,8 km/h (2 Bft) W-NW 290 0 min 0,000 mm 0 W/m 10,9 C 16,8 C 8,8 km/h (2 Bft) 0,00 %
24.06.2012 10:25 16,9 C 0,0 C 0,0 C 68 % 1016,5 hPa 0,0 l/m 16,0 km/h (3 Bft) NW 305 0 min 0,000 mm 0 W/m 11,0 C 16,9 C 16,0 km/h (3 Bft) 0,00 %
24.06.2012 10:30 17,2 C 0,0 C 0,0 C 67 % 1016,5 hPa 0,0 l/m 12,1 km/h (2 Bft) SO 135 0 min 0,000 mm 0 W/m 11,0 C 17,2 C 12,1 km/h (2 Bft) 0,00 %
24.06.2012 10:35 17,2 C 0,0 C 0,0 C 65 % 1016,5 hPa 0,0 l/m 11,5 km/h (2 Bft) W 280 0 min 0,000 mm 0 W/m 10,6 C 17,2 C 11,5 km/h (2 Bft) 0,00 %
24.06.2012 10:40 17,4 C 0,0 C 0,0 C 65 % 1016,5 hPa 0,0 l/m 13,3 km/h (3 Bft) S 175 0 min 0,000 mm 0 W/m 10,8 C 17,4 C 13,3 km/h (3 Bft) 0,00 %
24.06.2012 10:45 17,5 C 0,0 C 0,0 C 65 % 1016,5 hPa 0,0 l/m 13,6 km/h (3 Bft) W-NW 290 0 min 0,000 mm 0 W/m 10,8 C 17,5 C 13,6 km/h (3 Bft) 0,00 %
24.06.2012 10:50 17,5 C 0,0 C 0,0 C 65 % 1016,5 hPa 0,0 l/m 13,0 km/h (3 Bft) O 80 0 min 0,000 mm 0 W/m 10,8 C 17,5 C 13,0 km/h (3 Bft) 0,00 %
24.06.2012 10:55 17,5 C 0,0 C 0,0 C 65 % 1016,5 hPa 0,0 l/m 8,8 km/h (2 Bft) SW 225 0 min 0,000 mm 0 W/m 10,8 C 17,5 C 8,8 km/h (2 Bft) 0,00 %
24.06.2012 11:00 17,8 C 0,0 C 0,0 C 65 % 1016,5 hPa 0,0 l/m 10,9 km/h (2 Bft) W-SW 255 0 min 0,000 mm 0 W/m 11,1 C 17,8 C 10,9 km/h (2 Bft) 0,00 %
24.06.2012 11:05 17,6 C 0,0 C 0,0 C 65 % 1016,5 hPa 0,0 l/m 15,1 km/h (3 Bft) W-SW 255 0 min 0,000 mm 0 W/m 10,9 C 17,6 C 15,1 km/h (3 Bft) 0,00 %
24.06.2012 11:10 17,7 C 0,0 C 0,0 C 65 % 1016,5 hPa 0,0 l/m 14,5 km/h (3 Bft) W 280 0 min 0,000 mm 0 W/m 11,0 C 17,7 C 14,5 km/h (3 Bft) 0,00 %
24.06.2012 11:15 17,7 C 0,0 C 0,0 C 65 % 1016,5 hPa 0,0 l/m 14,8 km/h (3 Bft) W-NW 285 0 min 0,000 mm 0 W/m 11,0 C 17,7 C 14,8 km/h (3 Bft) 0,00 %
24.06.2012 11:20 17,7 C 0,0 C 0,0 C 64 % 1016,5 hPa 0,0 l/m 11,5 km/h (2 Bft) NW 305 0 min 0,000 mm 0 W/m 10,8 C 17,7 C 11,5 km/h (2 Bft) 0,00 %
24.06.2012 11:25 18,0 C 0,0 C 0,0 C 64 % 1016,5 hPa 0,0 l/m 9,1 km/h (2 Bft) W-SW 250 0 min 0,000 mm 0 W/m 11,1 C 18,0 C 9,1 km/h (2 Bft) 0,00 %
24.06.2012 11:30 17,7 C 0,0 C 0,0 C 63 % 1016,5 hPa 0,0 l/m 16,3 km/h (3 Bft) W 270 0 min 0,000 mm 0 W/m 10,6 C 17,7 C 16,3 km/h (3 Bft) 0,00 %
24.06.2012 11:35 17,5 C 0,0 C 0,0 C 63 % 1016,5 hPa 0,0 l/m 15,7 km/h (3 Bft) NW 320 0 min 0,000 mm 0 W/m 10,4 C 17,5 C 15,7 km/h (3 Bft) 0,00 %
24.06.2012 11:40 17,6 C 0,0 C 0,0 C 63 % 1016,5 hPa 0,0 l/m 15,7 km/h (3 Bft) NO 40 0 min 0,000 mm 0 W/m 10,5 C 17,6 C 15,7 km/h (3 Bft) 0,00 %
24.06.2012 11:45 18,2 C 0,0 C 0,0 C 64 % 1016,5 hPa 0,0 l/m 12,7 km/h (3 Bft) W 260 0 min 0,000 mm 0 W/m 11,3 C 18,2 C 12,7 km/h (3 Bft) 0,00 %
24.06.2012 11:50 17,9 C 0,0 C 0,0 C 62 % 1015,5 hPa 0,0 l/m 16,6 km/h (3 Bft) W 260 0 min 0,000 mm 0 W/m 10,5 C 17,9 C 16,6 km/h (3 Bft) 0,00 %
24.06.2012 11:55 18,0 C 0,0 C 0,0 C 63 % 1015,5 hPa 0,0 l/m 19,1 km/h (3 Bft) S 185 0 min 0,000 mm 0 W/m 10,8 C 18,0 C 19,1 km/h (3 Bft) 0,00 %
24.06.2012 12:00 18,1 C 0,0 C 0,0 C 63 % 1015,5 hPa 0,0 l/m 12,1 km/h (2 Bft) W-NW 290 0 min 0,000 mm 0 W/m 10,9 C 18,1 C 12,1 km/h (2 Bft) 0,00 %
24.06.2012 12:05 17,9 C 0,0 C 0,0 C 62 % 1015,5 hPa 0,0 l/m 17,2 km/h (3 Bft) W-NW 300 0 min 0,000 mm 0 W/m 10,5 C 17,9 C 17,2 km/h (3 Bft) 0,00 %
24.06.2012 12:10 18,2 C 0,0 C 0,0 C 62 % 1015,5 hPa 0,0 l/m 14,5 km/h (3 Bft) NW 320 0 min 0,000 mm 0 W/m 10,8 C 18,2 C 14,5 km/h (3 Bft) 0,00 %
24.06.2012 12:15 18,4 C 0,0 C 0,0 C 62 % 1015,5 hPa 0,0 l/m 17,6 km/h (3 Bft) SW 220 0 min 0,000 mm 0 W/m 11,0 C 18,4 C 17,6 km/h (3 Bft) 0,00 %
24.06.2012 12:20 18,4 C 0,0 C 0,0 C 61 % 1015,5 hPa 0,0 l/m 14,2 km/h (3 Bft) S 175 0 min 0,000 mm 0 W/m 10,7 C 18,4 C 14,2 km/h (3 Bft) 0,00 %
24.06.2012 12:25 18,1 C 0,0 C 0,0 C 61 % 1015,5 hPa 0,0 l/m 20,3 km/h (4 Bft) S-SO 155 0 min 0,000 mm 0 W/m 10,5 C 18,1 C 20,3 km/h (4 Bft) 0,00 %
24.06.2012 12:30 18,0 C 0,0 C 0,0 C 61 % 1015,5 hPa 0,0 l/m 15,7 km/h (3 Bft) S-SW 205 0 min 0,000 mm 0 W/m 10,4 C 18,0 C 15,7 km/h (3 Bft) 0,00 %
24.06.2012 12:35 18,1 C 0,0 C 0,0 C 61 % 1015,5 hPa 0,0 l/m 16,6 km/h (3 Bft) W-SW 250 0 min 0,000 mm 0 W/m 10,5 C 18,1 C 16,6 km/h (3 Bft) 0,00 %
24.06.2012 12:40 18,0 C 0,0 C 0,0 C 61 % 1015,5 hPa 0,0 l/m 16,3 km/h (3 Bft) SW 220 0 min 0,000 mm 0 W/m 10,4 C 18,0 C 16,3 km/h (3 Bft) 0,00 %
24.06.2012 12:45 18,0 C 0,0 C 0,0 C 61 % 1015,5 hPa 0,0 l/m 20,9 km/h (4 Bft) SW 235 0 min 0,000 mm 0 W/m 10,4 C 18,0 C 20,9 km/h (4 Bft) 0,00 %
24.06.2012 12:50 17,9 C 0,0 C 0,0 C 61 % 1015,5 hPa 0,0 l/m 24,5 km/h (4 Bft) W-NW 295 0 min 0,000 mm 0 W/m 10,3 C 17,9 C 24,5 km/h (4 Bft) 0,00 %
24.06.2012 12:55 18,0 C 0,0 C 0,0 C 62 % 1015,5 hPa 0,0 l/m 14,5 km/h (3 Bft) N-NW 330 0 min 0,000 mm 0 W/m 10,6 C 18,0 C 14,5 km/h (3 Bft) 0,00 %
24.06.2012 13:00 18,0 C 0,0 C 0,0 C 62 % 1015,5 hPa 0,0 l/m 15,7 km/h (3 Bft) SW 215 0 min 0,000 mm 0 W/m 10,6 C 18,0 C 15,7 km/h (3 Bft) 0,00 %
24.06.2012 13:05 18,1 C 0,0 C 0,0 C 63 % 1015,5 hPa 0,0 l/m 19,1 km/h (3 Bft) S-SO 155 0 min 0,000 mm 0 W/m 10,9 C 18,1 C 19,1 km/h (3 Bft) 0,00 %
24.06.2012 13:10 18,0 C 0,0 C 0,0 C 62 % 1015,5 hPa 0,0 l/m 16,9 km/h (3 Bft) NW 310 0 min 0,000 mm 0 W/m 10,6 C 18,0 C 16,9 km/h (3 Bft) 0,00 %
24.06.2012 13:15 18,1 C 0,0 C 0,0 C 63 % 1015,5 hPa 0,0 l/m 16,0 km/h (3 Bft) NW 310 0 min 0,000 mm 0 W/m 10,9 C 18,1 C 16,0 km/h (3 Bft) 0,00 %
24.06.2012 13:20 18,1 C 0,0 C 0,0 C 63 % 1015,5 hPa 0,0 l/m 15,1 km/h (3 Bft) N 5 0 min 0,000 mm 0 W/m 10,9 C 18,1 C 15,1 km/h (3 Bft) 0,00 %
24.06.2012 13:25 18,0 C 0,0 C 0,0 C 63 % 1015,5 hPa 0,0 l/m 18,2 km/h (3 Bft) SW 230 0 min 0,000 mm 0 W/m 10,8 C 18,0 C 18,2 km/h (3 Bft) 0,00 %
24.06.2012 13:30 18,0 C 0,0 C 0,0 C 63 % 1015,5 hPa 0,0 l/m 21,8 km/h (4 Bft) W-NW 285 0 min 0,000 mm 0 W/m 10,8 C 18,0 C 21,8 km/h (4 Bft) 0,00 %
24.06.2012 13:35 17,9 C 0,0 C 0,0 C 64 % 1015,5 hPa 0,0 l/m 24,8 km/h (4 Bft) W 260 0 min 0,000 mm 0 W/m 11,0 C 17,9 C 24,8 km/h (4 Bft) 0,00 %
24.06.2012 13:40 17,9 C 0,0 C 0,0 C 64 % 1015,5 hPa 0,0 l/m 14,2 km/h (3 Bft) W-NW 285 0 min 0,000 mm 0 W/m 11,0 C 17,9 C 14,2 km/h (3 Bft) 0,00 %
24.06.2012 13:45 17,9 C 0,0 C 0,0 C 64 % 1015,5 hPa 0,0 l/m 20,3 km/h (4 Bft) S-SW 195 0 min 0,000 mm 0 W/m 11,0 C 17,9 C 20,3 km/h (4 Bft) 0,00 %
24.06.2012 13:50 17,9 C 0,0 C 0,0 C 64 % 1014,5 hPa 0,0 l/m 15,1 km/h (3 Bft) W 275 0 min 0,000 mm 0 W/m 11,0 C 17,9 C 15,1 km/h (3 Bft) 0,00 %
24.06.2012 13:55 18,0 C 0,0 C 0,0 C 64 % 1014,5 hPa 0,0 l/m 17,2 km/h (3 Bft) W-SW 255 0 min 0,000 mm 0 W/m 11,1 C 18,0 C 17,2 km/h (3 Bft) 0,00 %
24.06.2012 14:00 17,8 C 0,0 C 0,0 C 63 % 1014,5 hPa 0,0 l/m 20,9 km/h (4 Bft) SO 140 0 min 0,000 mm 0 W/m 10,7 C 17,8 C 20,9 km/h (4 Bft) 0,00 %
24.06.2012 14:05 17,8 C 0,0 C 0,0 C 64 % 1014,5 hPa 0,0 l/m 15,4 km/h (3 Bft) W-SW 245 0 min 0,000 mm 0 W/m 10,9 C 17,8 C 15,4 km/h (3 Bft) 0,00 %
24.06.2012 14:10 17,7 C 0,0 C 0,0 C 64 % 1014,5 hPa 0,0 l/m 18,2 km/h (3 Bft) S-SO 150 0 min 0,000 mm 0 W/m 10,8 C 17,7 C 18,2 km/h (3 Bft) 0,00 %
24.06.2012 14:15 17,5 C 0,0 C 0,0 C 64 % 1014,5 hPa 0,0 l/m 13,9 km/h (3 Bft) S 190 0 min 0,000 mm 0 W/m 10,6 C 17,5 C 13,9 km/h (3 Bft) 0,00 %
24.06.2012 14:20 17,4 C 0,0 C 0,0 C 65 % 1014,5 hPa 0,0 l/m 17,6 km/h (3 Bft) S-SO 155 0 min 0,000 mm 0 W/m 10,8 C 17,4 C 17,6 km/h (3 Bft) 0,00 %
24.06.2012 14:25 17,5 C 0,0 C 0,0 C 65 % 1014,5 hPa 0,0 l/m 15,7 km/h (3 Bft) S-SW 205 0 min 0,000 mm 0 W/m 10,8 C 17,5 C 15,7 km/h (3 Bft) 0,00 %
24.06.2012 14:30 17,6 C 0,0 C 0,0 C 64 % 1014,5 hPa 0,0 l/m 16,6 km/h (3 Bft) W-SW 255 0 min 0,000 mm 0 W/m 10,7 C 17,6 C 16,6 km/h (3 Bft) 0,00 %
24.06.2012 14:35 17,7 C 0,0 C 0,0 C 64 % 1014,5 hPa 0,0 l/m 16,0 km/h (3 Bft) O-SO 105 0 min 0,000 mm 0 W/m 10,8 C 17,7 C 16,0 km/h (3 Bft) 0,00 %
24.06.2012 14:40 17,1 C 0,0 C 0,0 C 64 % 1014,5 hPa 0,0 l/m 23,0 km/h (4 Bft) S-SW 200 0 min 0,000 mm 0 W/m 10,2 C 17,1 C 23,0 km/h (4 Bft) 0,00 %
24.06.2012 14:45 17,2 C 0,0 C 0,0 C 65 % 1014,5 hPa 0,0 l/m 12,7 km/h (3 Bft) S-SW 200 0 min 0,000 mm 0 W/m 10,6 C 17,2 C 12,7 km/h (3 Bft) 0,00 %
24.06.2012 14:50 17,2 C 0,0 C 0,0 C 65 % 1014,5 hPa 0,0 l/m 23,6 km/h (4 Bft) W-SW 250 0 min 0,000 mm 0 W/m 10,6 C 17,2 C 23,6 km/h (4 Bft) 0,00 %
24.06.2012 14:55 17,1 C 0,0 C 0,0 C 65 % 1014,5 hPa 0,0 l/m 11,2 km/h (2 Bft) W 270 0 min 0,000 mm 0 W/m 10,5 C 17,1 C 11,2 km/h (2 Bft) 0,00 %
24.06.2012 15:00 16,9 C 0,0 C 0,0 C 67 % 1014,5 hPa 0,0 l/m 18,8 km/h (3 Bft) O-SO 105 0 min 0,000 mm 0 W/m 10,7 C 16,9 C 18,8 km/h (3 Bft) 0,00 %
24.06.2012 15:05 16,8 C 0,0 C 0,0 C 68 % 1014,5 hPa 0,0 l/m 14,2 km/h (3 Bft) W 265 0 min 0,000 mm 0 W/m 10,9 C 16,8 C 14,2 km/h (3 Bft) 0,00 %
24.06.2012 15:10 16,8 C 0,0 C 0,0 C 68 % 1014,5 hPa 0,0 l/m 15,4 km/h (3 Bft) NO 40 0 min 0,000 mm 0 W/m 10,9 C 16,8 C 15,4 km/h (3 Bft) 0,00 %
24.06.2012 15:15 17,0 C 0,0 C 0,0 C 68 % 1014,5 hPa 0,0 l/m 13,9 km/h (3 Bft) W 275 0 min 0,000 mm 0 W/m 11,0 C 17,0 C 13,9 km/h (3 Bft) 0,00 %
24.06.2012 15:20 16,9 C 0,0 C 0,0 C 67 % 1013,5 hPa 0,0 l/m 17,6 km/h (3 Bft) SW 220 0 min 0,000 mm 0 W/m 10,7 C 16,9 C 17,6 km/h (3 Bft) 0,00 %
24.06.2012 15:25 16,7 C 0,0 C 0,0 C 67 % 1013,5 hPa 0,0 l/m 20,0 km/h (4 Bft) NW 310 0 min 0,000 mm 0 W/m 10,5 C 16,7 C 20,0 km/h (4 Bft) 0,00 %
24.06.2012 15:30 16,5 C 0,0 C 0,0 C 69 % 1013,5 hPa 0,0 l/m 21,2 km/h (4 Bft) W-SW 245 0 min 0,000 mm 0 W/m 10,8 C 16,5 C 21,2 km/h (4 Bft) 0,00 %
24.06.2012 15:35 16,5 C 0,0 C 0,0 C 69 % 1013,5 hPa 0,0 l/m 17,2 km/h (3 Bft) S-SO 160 0 min 0,000 mm 0 W/m 10,8 C 16,5 C 17,2 km/h (3 Bft) 0,00 %
24.06.2012 15:40 16,3 C 0,0 C 0,0 C 69 % 1013,5 hPa 0,0 l/m 17,6 km/h (3 Bft) SW 220 0 min 0,000 mm 0 W/m 10,6 C 16,3 C 17,6 km/h (3 Bft) 0,00 %
24.06.2012 15:45 16,2 C 0,0 C 0,0 C 71 % 1013,5 hPa 0,0 l/m 17,9 km/h (3 Bft) NW 315 0 min 0,000 mm 0 W/m 10,9 C 16,2 C 17,9 km/h (3 Bft) 0,00 %
24.06.2012 15:50 15,9 C 0,0 C 0,0 C 72 % 1013,5 hPa 0,0 l/m 9,1 km/h (2 Bft) W-SW 245 0 min 0,000 mm 0 W/m 10,9 C 15,9 C 9,1 km/h (2 Bft) 0,00 %
24.06.2012 15:55 15,9 C 0,0 C 0,0 C 73 % 1013,5 hPa 0,0 l/m 18,5 km/h (3 Bft) SO 140 0 min 0,000 mm 0 W/m 11,1 C 15,9 C 18,5 km/h (3 Bft) 0,00 %
24.06.2012 16:00 15,8 C 0,0 C 0,0 C 74 % 1013,5 hPa 0,0 l/m 11,5 km/h (2 Bft) S-SW 195 0 min 0,000 mm 0 W/m 11,2 C 15,8 C 11,5 km/h (2 Bft) 0,00 %
24.06.2012 16:05 15,5 C 0,0 C 0,0 C 74 % 1014,5 hPa 0,0 l/m 16,3 km/h (3 Bft) S-SW 195 0 min 0,000 mm 0 W/m 10,9 C 15,5 C 16,3 km/h (3 Bft) 0,00 %
24.06.2012 16:10 15,4 C 0,0 C 0,0 C 76 % 1014,5 hPa 0,0 l/m 10,3 km/h (2 Bft) S 175 0 min 0,000 mm 0 W/m 11,2 C 15,4 C 10,3 km/h (2 Bft) 0,00 %
24.06.2012 16:15 15,3 C 0,0 C 0,0 C 76 % 1014,5 hPa 0,0 l/m 13,9 km/h (3 Bft) S 175 0 min 0,000 mm 0 W/m 11,1 C 15,3 C 13,9 km/h (3 Bft) 0,00 %
24.06.2012 16:20 15,0 C 0,0 C 0,0 C 77 % 1013,5 hPa 0,0 l/m 15,1 km/h (3 Bft) S-SW 200 0 min 0,000 mm 0 W/m 11,0 C 15,0 C 15,1 km/h (3 Bft) 0,00 %
24.06.2012 16:25 14,8 C 0,0 C 0,0 C 79 % 1013,5 hPa 0,3 l/m 5,4 km/h (1 Bft) W-NW 285 0 min 0,000 mm 0 W/m 11,2 C 14,8 C 5,4 km/h (1 Bft) 0,00 %
24.06.2012 16:30 14,8 C 0,0 C 0,0 C 79 % 1013,5 hPa 0,0 l/m 13,3 km/h (3 Bft) W-SW 245 0 min 0,000 mm 0 W/m 11,2 C 14,8 C 13,3 km/h (3 Bft) 0,00 %
24.06.2012 16:35 14,6 C 0,0 C 0,0 C 80 % 1013,5 hPa 0,0 l/m 7,9 km/h (2 Bft) O 95 0 min 0,000 mm 0 W/m 11,2 C 14,6 C 7,9 km/h (2 Bft) 0,00 %
24.06.2012 16:40 14,5 C 0,0 C 0,0 C 80 % 1013,5 hPa 0,0 l/m 11,5 km/h (2 Bft) S-SW 210 0 min 0,000 mm 0 W/m 11,1 C 14,5 C 11,5 km/h (2 Bft) 0,00 %
24.06.2012 16:45 14,5 C 0,0 C 0,0 C 81 % 1013,5 hPa 0,0 l/m 9,1 km/h (2 Bft) W 275 0 min 0,000 mm 0 W/m 11,3 C 14,5 C 9,1 km/h (2 Bft) 0,00 %
24.06.2012 16:50 14,4 C 0,0 C 0,0 C 81 % 1013,5 hPa 0,0 l/m 11,8 km/h (2 Bft) W-SW 240 0 min 0,000 mm 0 W/m 11,2 C 14,4 C 11,8 km/h (2 Bft) 0,00 %
24.06.2012 16:55 14,4 C 0,0 C 0,0 C 81 % 1013,5 hPa 0,3 l/m 7,3 km/h (2 Bft) W-NW 300 0 min 0,000 mm 0 W/m 11,2 C 14,4 C 7,3 km/h (2 Bft) 0,00 %
24.06.2012 17:00 14,3 C 0,0 C 0,0 C 81 % 1013,5 hPa 0,0 l/m 12,7 km/h (3 Bft) W 275 0 min 0,000 mm 0 W/m 11,1 C 14,3 C 12,7 km/h (3 Bft) 0,00 %
24.06.2012 17:05 14,2 C 0,0 C 0,0 C 82 % 1014,5 hPa 0,0 l/m 11,5 km/h (2 Bft) NW 320 0 min 0,000 mm 0 W/m 11,2 C 14,2 C 11,5 km/h (2 Bft) 0,00 %
24.06.2012 17:10 14,0 C 0,0 C 0,0 C 82 % 1014,5 hPa 0,3 l/m 10,3 km/h (2 Bft) SO 130 0 min 0,000 mm 0 W/m 11,0 C 14,0 C 10,3 km/h (2 Bft) 0,00 %
24.06.2012 17:15 13,9 C 0,0 C 0,0 C 82 % 1014,5 hPa 0,0 l/m 8,5 km/h (2 Bft) W-NW 285 0 min 0,000 mm 0 W/m 10,9 C 13,9 C 8,5 km/h (2 Bft) 0,00 %
24.06.2012 17:20 13,8 C 0,0 C 0,0 C 82 % 1014,5 hPa 0,3 l/m 14,5 km/h (3 Bft) W-SW 240 0 min 0,000 mm 0 W/m 10,8 C 13,8 C 14,5 km/h (3 Bft) 0,00 %
24.06.2012 17:25 13,8 C 0,0 C 0,0 C 83 % 1014,5 hPa 0,0 l/m 12,1 km/h (2 Bft) W 265 0 min 0,000 mm 0 W/m 11,0 C 13,8 C 12,1 km/h (2 Bft) 0,00 %
24.06.2012 17:30 13,7 C 0,0 C 0,0 C 83 % 1014,5 hPa 0,3 l/m 15,1 km/h (3 Bft) W 275 0 min 0,000 mm 0 W/m 10,9 C 13,7 C 15,1 km/h (3 Bft) 0,00 %
24.06.2012 17:35 13,7 C 0,0 C 0,0 C 83 % 1013,5 hPa 0,3 l/m 16,9 km/h (3 Bft) W 260 0 min 0,000 mm 0 W/m 10,9 C 13,7 C 16,9 km/h (3 Bft) 0,00 %
24.06.2012 17:40 13,5 C 0,0 C 0,0 C 84 % 1013,5 hPa 0,0 l/m 9,1 km/h (2 Bft) W-SW 245 0 min 0,000 mm 0 W/m 10,8 C 13,5 C 9,1 km/h (2 Bft) 0,00 %
24.06.2012 17:45 13,5 C 0,0 C 0,0 C 84 % 1013,5 hPa 0,3 l/m 10,3 km/h (2 Bft) NW 310 0 min 0,000 mm 0 W/m 10,8 C 13,5 C 10,3 km/h (2 Bft) 0,00 %
24.06.2012 17:50 13,4 C 0,0 C 0,0 C 84 % 1013,5 hPa 0,3 l/m 9,7 km/h (2 Bft) NW 325 0 min 0,000 mm 0 W/m 10,8 C 13,4 C 9,7 km/h (2 Bft) 0,00 %
24.06.2012 17:55 13,4 C 0,0 C 0,0 C 84 % 1013,5 hPa 0,0 l/m 9,4 km/h (2 Bft) SW 220 0 min 0,000 mm 0 W/m 10,8 C 13,4 C 9,4 km/h (2 Bft) 0,00 %
24.06.2012 18:00 13,3 C 0,0 C 0,0 C 85 % 1013,5 hPa 0,0 l/m 11,5 km/h (2 Bft) SW 220 0 min 0,000 mm 0 W/m 10,8 C 13,3 C 11,5 km/h (2 Bft) 0,00 %
24.06.2012 18:05 13,4 C 0,0 C 0,0 C 85 % 1013,5 hPa 0,0 l/m 5,4 km/h (1 Bft) S-SW 210 0 min 0,000 mm 0 W/m 10,9 C 13,4 C 5,4 km/h (1 Bft) 0,00 %
24.06.2012 18:10 13,4 C 0,0 C 0,0 C 85 % 1013,5 hPa 0,0 l/m 9,4 km/h (2 Bft) NW 315 0 min 0,000 mm 0 W/m 10,9 C 13,4 C 9,4 km/h (2 Bft) 0,00 %
24.06.2012 18:15 13,4 C 0,0 C 0,0 C 85 % 1013,5 hPa 0,3 l/m 8,2 km/h (2 Bft) W-SW 245 0 min 0,000 mm 0 W/m 10,9 C 13,4 C 8,2 km/h (2 Bft) 0,00 %
24.06.2012 18:20 13,4 C 0,0 C 0,0 C 86 % 1013,5 hPa 0,3 l/m 11,5 km/h (2 Bft) SW 230 0 min 0,000 mm 0 W/m 11,1 C 13,4 C 11,5 km/h (2 Bft) 0,00 %
24.06.2012 18:25 13,4 C 0,0 C 0,0 C 86 % 1013,5 hPa 0,0 l/m 10,6 km/h (2 Bft) W-SW 245 0 min 0,000 mm 0 W/m 11,1 C 13,4 C 10,6 km/h (2 Bft) 0,00 %
24.06.2012 18:30 13,3 C 0,0 C 0,0 C 86 % 1013,5 hPa 0,0 l/m 10,6 km/h (2 Bft) W 265 0 min 0,000 mm 0 W/m 11,0 C 13,3 C 10,6 km/h (2 Bft) 0,00 %
24.06.2012 18:35 13,4 C 0,0 C 0,0 C 86 % 1013,5 hPa 0,0 l/m 11,2 km/h (2 Bft) SW 230 0 min 0,000 mm 0 W/m 11,1 C 13,4 C 11,2 km/h (2 Bft) 0,00 %
24.06.2012 18:40 13,4 C 0,0 C 0,0 C 86 % 1013,5 hPa 0,0 l/m 9,7 km/h (2 Bft) W 265 0 min 0,000 mm 0 W/m 11,1 C 13,4 C 9,7 km/h (2 Bft) 0,00 %
24.06.2012 18:45 13,3 C 0,0 C 0,0 C 86 % 1013,5 hPa 0,3 l/m 15,1 km/h (3 Bft) S-SW 195 0 min 0,000 mm 0 W/m 11,0 C 13,3 C 15,1 km/h (3 Bft) 0,00 %
24.06.2012 18:50 13,3 C 0,0 C 0,0 C 86 % 1013,5 hPa 0,3 l/m 14,2 km/h (3 Bft) NW 310 0 min 0,000 mm 0 W/m 11,0 C 13,3 C 14,2 km/h (3 Bft) 0,00 %
24.06.2012 18:55 13,3 C 0,0 C 0,0 C 86 % 1013,5 hPa 0,0 l/m 7,9 km/h (2 Bft) W-NW 300 0 min 0,000 mm 0 W/m 11,0 C 13,3 C 7,9 km/h (2 Bft) 0,00 %
24.06.2012 19:00 13,3 C 0,0 C 0,0 C 87 % 1013,5 hPa 0,3 l/m 13,3 km/h (3 Bft) W 280 0 min 0,000 mm 0 W/m 11,2 C 13,3 C 13,3 km/h (3 Bft) 0,00 %
24.06.2012 19:05 13,3 C 0,0 C 0,0 C 87 % 1013,5 hPa 0,3 l/m 12,4 km/h (3 Bft) W-SW 240 0 min 0,000 mm 0 W/m 11,2 C 13,3 C 12,4 km/h (3 Bft) 0,00 %
24.06.2012 19:10 13,4 C 0,0 C 0,0 C 87 % 1013,5 hPa 0,3 l/m 13,3 km/h (3 Bft) W 260 0 min 0,000 mm 0 W/m 11,3 C 13,4 C 13,3 km/h (3 Bft) 0,00 %
24.06.2012 19:15 13,2 C 0,0 C 0,0 C 87 % 1013,5 hPa 0,0 l/m 20,0 km/h (4 Bft) NW 305 0 min 0,000 mm 0 W/m 11,1 C 13,2 C 20,0 km/h (4 Bft) 0,00 %
24.06.2012 19:20 13,2 C 0,0 C 0,0 C 86 % 1014,5 hPa 0,3 l/m 22,4 km/h (4 Bft) W 280 0 min 0,000 mm 0 W/m 10,9 C 13,2 C 22,4 km/h (4 Bft) 0,00 %
24.06.2012 19:25 13,1 C 0,0 C 0,0 C 86 % 1014,5 hPa 0,0 l/m 22,1 km/h (4 Bft) W-SW 255 0 min 0,000 mm 0 W/m 10,8 C 13,1 C 22,1 km/h (4 Bft) 0,00 %
24.06.2012 19:30 13,1 C 0,0 C 0,0 C 86 % 1014,5 hPa 0,3 l/m 15,4 km/h (3 Bft) W-SW 250 0 min 0,000 mm 0 W/m 10,8 C 13,1 C 15,4 km/h (3 Bft) 0,00 %
24.06.2012 19:35 13,0 C 0,0 C 0,0 C 86 % 1014,5 hPa 0,3 l/m 22,4 km/h (4 Bft) W-SW 245 0 min 0,000 mm 0 W/m 10,7 C 13,0 C 22,4 km/h (4 Bft) 0,00 %
24.06.2012 19:40 13,0 C 0,0 C 0,0 C 86 % 1014,5 hPa 0,0 l/m 14,8 km/h (3 Bft) W-SW 255 0 min 0,000 mm 0 W/m 10,7 C 13,0 C 14,8 km/h (3 Bft) 0,00 %
24.06.2012 19:45 13,0 C 0,0 C 0,0 C 87 % 1014,5 hPa 0,3 l/m 16,9 km/h (3 Bft) W 270 0 min 0,000 mm 0 W/m 10,9 C 13,0 C 16,9 km/h (3 Bft) 0,00 %
24.06.2012 19:50 12,9 C 0,0 C 0,0 C 87 % 1014,5 hPa 0,3 l/m 13,9 km/h (3 Bft) W-NW 295 0 min 0,000 mm 0 W/m 10,8 C 12,9 C 13,9 km/h (3 Bft) 0,00 %
24.06.2012 19:55 12,9 C 0,0 C 0,0 C 87 % 1014,5 hPa 0,3 l/m 15,1 km/h (3 Bft) W-NW 290 0 min 0,000 mm 0 W/m 10,8 C 12,9 C 15,1 km/h (3 Bft) 0,00 %
24.06.2012 20:00 12,9 C 0,0 C 0,0 C 87 % 1014,5 hPa 0,0 l/m 9,1 km/h (2 Bft) W 270 0 min 0,000 mm 0 W/m 10,8 C 12,9 C 9,1 km/h (2 Bft) 0,00 %
24.06.2012 20:05 12,9 C 0,0 C 0,0 C 87 % 1014,5 hPa 0,3 l/m 12,7 km/h (3 Bft) W-NW 300 0 min 0,000 mm 0 W/m 10,8 C 12,9 C 12,7 km/h (3 Bft) 0,00 %
24.06.2012 20:10 12,8 C 0,0 C 0,0 C 87 % 1014,5 hPa 0,3 l/m 12,4 km/h (3 Bft) W 270 0 min 0,000 mm 0 W/m 10,7 C 12,8 C 12,4 km/h (3 Bft) 0,00 %
24.06.2012 20:15 12,8 C 0,0 C 0,0 C 87 % 1014,5 hPa 0,3 l/m 8,8 km/h (2 Bft) NW 305 0 min 0,000 mm 0 W/m 10,7 C 12,8 C 8,8 km/h (2 Bft) 0,00 %
24.06.2012 20:20 12,6 C 0,0 C 0,0 C 87 % 1014,5 hPa 0,0 l/m 12,1 km/h (2 Bft) N-NW 340 0 min 0,000 mm 0 W/m 10,5 C 12,6 C 12,1 km/h (2 Bft) 0,00 %
24.06.2012 20:25 12,6 C 0,0 C 0,0 C 87 % 1014,5 hPa 0,0 l/m 0,0 km/h (0 Bft) SW 235 0 min 0,000 mm 0 W/m 10,5 C 12,6 C 0,0 km/h (0 Bft) 0,00 %
24.06.2012 20:30 12,5 C 0,0 C 0,0 C 86 % 1014,5 hPa 0,0 l/m 19,1 km/h (3 Bft) SW 225 0 min 0,000 mm 0 W/m 10,2 C 12,5 C 19,1 km/h (3 Bft) 0,00 %
24.06.2012 20:35 12,3 C 0,0 C 0,0 C 85 % 1014,5 hPa 0,0 l/m 9,4 km/h (2 Bft) NW 315 0 min 0,000 mm 0 W/m 9,9 C 12,3 C 9,4 km/h (2 Bft) 0,00 %
24.06.2012 20:40 12,2 C 0,0 C 0,0 C 85 % 1014,5 hPa 0,3 l/m 7,6 km/h (2 Bft) W 270 0 min 0,000 mm 0 W/m 9,8 C 12,2 C 7,6 km/h (2 Bft) 0,00 %
24.06.2012 20:45 12,1 C 0,0 C 0,0 C 85 % 1014,5 hPa 0,0 l/m 20,6 km/h (4 Bft) W 280 0 min 0,000 mm 0 W/m 9,7 C 12,1 C 20,6 km/h (4 Bft) 0,00 %
24.06.2012 20:50 11,8 C 0,0 C 0,0 C 85 % 1014,5 hPa 0,0 l/m 15,4 km/h (3 Bft) SW 215 0 min 0,000 mm 0 W/m 9,4 C 11,8 C 15,4 km/h (3 Bft) 0,00 %
24.06.2012 20:55 11,7 C 0,0 C 0,0 C 84 % 1014,5 hPa 0,0 l/m 12,1 km/h (2 Bft) N-NO 20 0 min 0,000 mm 0 W/m 9,1 C 11,7 C 12,1 km/h (2 Bft) 0,00 %
24.06.2012 21:00 11,6 C 0,0 C 0,0 C 85 % 1014,5 hPa 0,0 l/m 7,3 km/h (2 Bft) SW 225 0 min 0,000 mm 0 W/m 9,2 C 11,6 C 7,3 km/h (2 Bft) 0,00 %
24.06.2012 21:05 11,4 C 0,0 C 0,0 C 85 % 1014,5 hPa 0,0 l/m 18,2 km/h (3 Bft) SW 235 0 min 0,000 mm 0 W/m 9,0 C 11,4 C 18,2 km/h (3 Bft) 0,00 %
24.06.2012 21:10 11,4 C 0,0 C 0,0 C 85 % 1014,5 hPa 0,0 l/m 15,4 km/h (3 Bft) SW 230 0 min 0,000 mm 0 W/m 9,0 C 11,4 C 15,4 km/h (3 Bft) 0,00 %
24.06.2012 21:15 11,2 C 0,0 C 0,0 C 86 % 1014,5 hPa 0,0 l/m 12,1 km/h (2 Bft) W-SW 250 0 min 0,000 mm 0 W/m 8,9 C 11,2 C 12,1 km/h (2 Bft) 0,00 %
24.06.2012 21:20 11,0 C 0,0 C 0,0 C 86 % 1014,5 hPa 0,0 l/m 13,9 km/h (3 Bft) SW 215 0 min 0,000 mm 0 W/m 8,7 C 11,0 C 13,9 km/h (3 Bft) 0,00 %
24.06.2012 21:25 11,0 C 0,0 C 0,0 C 86 % 1014,5 hPa 0,0 l/m 13,3 km/h (3 Bft) W-NW 300 0 min 0,000 mm 0 W/m 8,7 C 11,0 C 13,3 km/h (3 Bft) 0,00 %
24.06.2012 21:30 10,8 C 0,0 C 0,0 C 86 % 1014,5 hPa 0,0 l/m 10,3 km/h (2 Bft) NW 310 0 min 0,000 mm 0 W/m 8,6 C 10,8 C 10,3 km/h (2 Bft) 0,00 %
24.06.2012 21:35 10,9 C 0,0 C 0,0 C 86 % 1014,5 hPa 0,0 l/m 6,4 km/h (2 Bft) SW 230 0 min 0,000 mm 0 W/m 8,7 C 10,9 C 6,4 km/h (2 Bft) 0,00 %
24.06.2012 21:40 10,8 C 0,0 C 0,0 C 86 % 1014,5 hPa 0,0 l/m 0,0 km/h (0 Bft) W-NW 285 0 min 0,000 mm 0 W/m 8,6 C 10,8 C 0,0 km/h (0 Bft) 0,00 %
24.06.2012 21:45 10,8 C 0,0 C 0,0 C 86 % 1014,5 hPa 0,0 l/m 0,0 km/h (0 Bft) SW 235 0 min 0,000 mm 0 W/m 8,6 C 10,8 C 0,0 km/h (0 Bft) 0,00 %
24.06.2012 21:50 10,8 C 0,0 C 0,0 C 86 % 1014,5 hPa 0,0 l/m 6,7 km/h (2 Bft) S-SO 160 0 min 0,000 mm 0 W/m 8,6 C 10,8 C 6,7 km/h (2 Bft) 0,00 %
24.06.2012 21:55 10,8 C 0,0 C 0,0 C 86 % 1014,5 hPa 0,0 l/m 8,8 km/h (2 Bft) W-NW 285 0 min 0,000 mm 0 W/m 8,6 C 10,8 C 8,8 km/h (2 Bft) 0,00 %
24.06.2012 22:00 10,8 C 0,0 C 0,0 C 85 % 1014,5 hPa 0,0 l/m 7,9 km/h (2 Bft) W-SW 250 0 min 0,000 mm 0 W/m 8,4 C 10,8 C 7,9 km/h (2 Bft) 0,00 %
24.06.2012 22:05 10,7 C 0,0 C 0,0 C 85 % 1014,5 hPa 0,0 l/m 8,5 km/h (2 Bft) W 270 0 min 0,000 mm 0 W/m 8,3 C 10,7 C 8,5 km/h (2 Bft) 0,00 %
24.06.2012 22:10 10,7 C 0,0 C 0,0 C 85 % 1014,5 hPa 0,0 l/m 0,0 km/h (0 Bft) W 275 0 min 0,000 mm 0 W/m 8,3 C 10,7 C 0,0 km/h (0 Bft) 0,00 %
24.06.2012 22:15 10,7 C 0,0 C 0,0 C 86 % 1014,5 hPa 0,0 l/m 5,1 km/h (1 Bft) S-SW 210 0 min 0,000 mm 0 W/m 8,5 C 10,7 C 5,1 km/h (1 Bft) 0,00 %
24.06.2012 22:20 10,6 C 0,0 C 0,0 C 85 % 1015,5 hPa 0,0 l/m 7,0 km/h (2 Bft) W 260 0 min 0,000 mm 0 W/m 8,2 C 10,6 C 7,0 km/h (2 Bft) 0,00 %
24.06.2012 22:25 10,6 C 0,0 C 0,0 C 85 % 1015,5 hPa 0,0 l/m 0,0 km/h (0 Bft) SW 215 0 min 0,000 mm 0 W/m 8,2 C 10,6 C 0,0 km/h (0 Bft) 0,00 %
24.06.2012 22:30 10,6 C 0,0 C 0,0 C 86 % 1015,5 hPa 0,0 l/m 0,0 km/h (0 Bft) S 185 0 min 0,000 mm 0 W/m 8,4 C 10,6 C 0,0 km/h (0 Bft) 0,00 %
24.06.2012 22:35 10,5 C 0,0 C 0,0 C 86 % 1015,5 hPa 0,0 l/m 0,0 km/h (0 Bft) NW 305 0 min 0,000 mm 0 W/m 8,3 C 10,5 C 0,0 km/h (0 Bft) 0,00 %
24.06.2012 22:40 10,5 C 0,0 C 0,0 C 86 % 1015,5 hPa 0,3 l/m 0,0 km/h (0 Bft) SW 215 0 min 0,000 mm 0 W/m 8,3 C 10,5 C 0,0 km/h (0 Bft) 0,00 %
24.06.2012 22:45 10,5 C 0,0 C 0,0 C 86 % 1015,5 hPa 0,0 l/m 0,0 km/h (0 Bft) W 265 0 min 0,000 mm 0 W/m 8,3 C 10,5 C 0,0 km/h (0 Bft) 0,00 %
24.06.2012 22:50 10,5 C 0,0 C 0,0 C 86 % 1015,5 hPa 0,0 l/m 0,0 km/h (0 Bft) N-NO 30 0 min 0,000 mm 0 W/m 8,3 C 10,5 C 0,0 km/h (0 Bft) 0,00 %
24.06.2012 22:55 10,4 C 0,0 C 0,0 C 87 % 1015,5 hPa 0,3 l/m 0,0 km/h (0 Bft) W 275 0 min 0,000 mm 0 W/m 8,3 C 10,4 C 0,0 km/h (0 Bft) 0,00 %
24.06.2012 23:00 10,4 C 0,0 C 0,0 C 87 % 1015,5 hPa 0,0 l/m 0,0 km/h (0 Bft) W 265 0 min 0,000 mm 0 W/m 8,3 C 10,4 C 0,0 km/h (0 Bft) 0,00 %
24.06.2012 23:05 10,4 C 0,0 C 0,0 C 87 % 1015,5 hPa 0,0 l/m 0,0 km/h (0 Bft) N-NW 340 0 min 0,000 mm 0 W/m 8,3 C 10,4 C 0,0 km/h (0 Bft) 0,00 %
24.06.2012 23:10 10,4 C 0,0 C 0,0 C 87 % 1015,5 hPa 0,3 l/m 0,0 km/h (0 Bft) W 275 0 min 0,000 mm 0 W/m 8,3 C 10,4 C 0,0 km/h (0 Bft) 0,00 %
24.06.2012 23:15 10,4 C 0,0 C 0,0 C 87 % 1015,5 hPa 0,0 l/m 0,0 km/h (0 Bft) SW 225 0 min 0,000 mm 0 W/m 8,3 C 10,4 C 0,0 km/h (0 Bft) 0,00 %
24.06.2012 23:20 10,4 C 0,0 C 0,0 C 87 % 1015,5 hPa 0,0 l/m 0,0 km/h (0 Bft) W-SW 245 0 min 0,000 mm 0 W/m 8,3 C 10,4 C 0,0 km/h (0 Bft) 0,00 %
24.06.2012 23:25 10,4 C 0,0 C 0,0 C 87 % 1015,5 hPa 0,0 l/m 0,0 km/h (0 Bft) W 265 0 min 0,000 mm 0 W/m 8,3 C 10,4 C 0,0 km/h (0 Bft) 0,00 %
24.06.2012 23:30 10,4 C 0,0 C 0,0 C 87 % 1015,5 hPa 0,0 l/m 0,0 km/h (0 Bft) S 170 0 min 0,000 mm 0 W/m 8,3 C 10,4 C 0,0 km/h (0 Bft) 0,00 %
24.06.2012 23:35 10,4 C 0,0 C 0,0 C 87 % 1015,5 hPa 0,0 l/m 0,0 km/h (0 Bft) NW 305 0 min 0,000 mm 0 W/m 8,3 C 10,4 C 0,0 km/h (0 Bft) 0,00 %
24.06.2012 23:40 10,4 C 0,0 C 0,0 C 88 % 1015,5 hPa 0,0 l/m 0,0 km/h (0 Bft) SW 230 0 min 0,000 mm 0 W/m 8,5 C 10,4 C 0,0 km/h (0 Bft) 0,00 %
24.06.2012 23:45 10,4 C 0,0 C 0,0 C 88 % 1015,5 hPa 0,3 l/m 4,2 km/h (1 Bft) W-SW 240 0 min 0,000 mm 0 W/m 8,5 C 10,4 C 4,2 km/h (1 Bft) 0,00 %
24.06.2012 23:50 10,4 C 0,0 C 0,0 C 88 % 1015,5 hPa 0,0 l/m 3,6 km/h (1 Bft) W-SW 255 0 min 0,000 mm 0 W/m 8,5 C 10,4 C 3,6 km/h (1 Bft) 0,00 %
24.06.2012 23:55 10,3 C 0,0 C 0,0 C 87 % 1015,5 hPa 0,0 l/m 0,0 km/h (0 Bft) S-SW 195 0 min 0,000 mm 0 W/m 8,2 C 10,3 C 0,0 km/h (0 Bft) 0,00 %
_ Min-Zeit 04:25 00:00 00:00 12:20 15:20 - 00:00 - - - - - 04:25 04:25 00:00 00:00
Minimum _ 8,4 C 0,0 C 0,0 C 61 % 1013,5 hPa - 0,0 km/h (0 Bft) - - - - - 6,4 C 8,4 C 0,0 km/h (0 Bft) 0,00 %
_ Max-Zeit 12:15 00:00 00:00 04:45 00:00 16:25 13:35 - - 00:00 00:00 00:00 19:10 12:15 13:35 00:00
Maximum _ 18,4 C 0,0 C 0,0 C 88 % 1021,5 hPa 0,3 l/m 24,8 km/h
W (4 Bft)
- - 0 min 0,000 mm 0 W/m 11,3 C 18,4 C 24,8 km/h
W (4 Bft)
0,00 %
Durchschnitt _ 13,0 C 0,0 C 0,0 C 79 % 1016,7 hPa #8,6 l/m 7,2 km/h (2 Bft) W - #0 min. #0,000 mm 0 W/m 9,3 C 13,0 C 7,2 km/h (2 Bft) 0,00 %
Wetterstation Gdesweiler